Regional Weather Roundup
Issued by NWS Grand Forks, ND

Home | Current Version | Previous Version | Text Only | Print | Product List | Glossary Off
Versions: 1 2 3 4 5 6 7 8 9 10 11 12 13 14 15 16 17 18 19 20 21 22 23 24 25 26 27 28 29 30 31 32 33 34 35 36 37 38 39 40 41 42 43 44 45 46 47 48 49 50

000
ASUS43 KFGF 251710
RWRFGF
PRAIRIE TO PINES  WEATHER ROUNDUP
NATIONAL WEATHER SERVICE EASTERN NORTH DAKOTA/GRAND FORKS ND
1100 AM CST SAT FEB 25 2017

 **SATELLITE DATA USED TO AUGMENT SKY COVER AT AUTOMATED STATIONS**
 *****  WEATHER ACROSS EASTERN NORTH DAKOTA  *****

CITY           SKY/WX    TMP DP  RH WIND       PRES   REMARKS
GRAND FORKS    PTSUNNY   30  20  66 W9        29.82F WCI  22
GRAND FRKS AFB PTSUNNY   30  22  73 NW13      29.82F WCI  20
DEVILS LAKE    CLOUDY    21  19  93 NW14      29.82F WCI   8
FARGO          CLOUDY    29  20  69 SW15      29.87F WCI  18
WAHPETON ARPT  CLOUDY    30  19  64 SW15      29.90F WCI  19
$$

 ***** WEATHER ACROSS CENTRAL AND WESTERN NORTH DAKOTA  *****

CITY           SKY/WX    TMP DP  RH WIND       PRES   REMARKS
BISMARCK       LGT SNOW  27  24  89 N9        29.87S VSB 1   WCI  18
MINOT          PTSUNNY   22  17  81 W14       29.85F WCI   9
JAMESTOWN      CLOUDY    25  21  85 NW14      29.83F WCI  13
MINOT AFB      FAIR      20  15  80 NW12      29.85F WCI   8
GARRISON         N/A     24  19  81 NW10      29.85F WCI  14
WILLISTON      PTSUNNY   22  17  81 W5        29.86F WCI  16
DICKINSON      CLOUDY    22  18  85 NW10      29.82F WCI  11
HETTINGER      CLOUDY    27  21  78 NW18      29.85S WCI  14
$$

 *****  OTHER AIRPORT OBSERVATIONS IN OUR AREA  *****

CITY           SKY/WX    TMP DP  RH WIND       PRES   REMARKS
WALHALLA       NOT AVBL
GRAFTON AIRPOR FAIR      25  21  86 NW12      29.85F WCI  14
VALLEY CITY AR LGT RAIN  27  25  93 W12       29.86F WCI  16
CANDO          NOT AVBL
CAVALIER APRT    N/A     23  19  86 W9        29.82F WCI  13
GWINNER        PTSUNNY   30  23  74 SW20      29.88F WCI  18
SHEYENNE NWR     N/A     29  19  66 W14       29.95S WCI  18
ROLLA          PTSUNNY   18  14  86 NW18      29.80F WCI   2
 ***** THE ABOVE OBSERVATIONS ARE NON NWS ARE NOT QUALITY
       CONTROLLED AND MAY MIS-REPORT RAIN FOR SNOW...
$$

  *****  WEATHER ACROSS NORTHERN MINNESOTA  *****

CITY           SKY/WX    TMP DP  RH WIND       PRES   REMARKS
FLAG ISLAND    LGT SNOW  12   7  79 S8        29.80F WCI   1
WARROAD        LGT SNOW  18  12  79 S3        29.81F
ROSEAU         CLOUDY    18  12  79 S8        29.80F WCI   7
HALLOCK        CLOUDY    23  19  86 NW10      29.82F WCI  12
THF RVR FALLS    N/A    N/A N/A N/A MISG        N/A
BAUDETTE       LGT SNOW  15   8  73 S3        29.80F
WASKISH        LGT SNOW  14  10  85 W5        29.83F WCI   6
CROOKSTON      PTSUNNY   28  21  74 W12       29.84F WCI  18
GREENBUSH NDAW   N/A     21  19  93 W10         N/A  WCI  10
$$
  *****  WEATHER ACROSS CENTRAL AND WEST MINNESOTA  *****

CITY           SKY/WX    TMP DP  RH WIND       PRES   REMARKS
FOSSTON        FLURRIES  23  16  74 SW15      29.83F WCI  10
BEMIDJI        FAIR      19  10  66 S6        29.82F WCI  11
PARK RAPIDS    FLURRIES  20  11  68 SW9       29.84F WCI   9
ELBOW LAKE     CLOUDY    25  15  67 SW13      29.92F WCI  13
WADENA         MIX PCPN  21  14  73 W12       29.87F WCI   9
DETROIT LAKES  FAIR      27  19  74 W8        29.86F WCI  18
MOORHEAD       LGT RAIN  27  19  74 SW12      29.88F WCI  16
FERGUS FALLS   FAIR      25  16  68 SW10      29.94F WCI  15
MORRIS MN      CLOUDY    27  16  63 SW10      29.92F WCI  17
STAPLES        CLOUDY    21  10  63 SW6       29.89F WCI  14
$$
  *****  WEATHER ELSEWHERE ACROSS MINNESOTA  *****

CITY           SKY/WX    TMP DP  RH WIND       PRES   REMARKS
DULUTH         FAIR      16   5  62 NW17      29.79S WCI   0
INTRNTL FALLS  CLOUDY    15   1  53 W8        29.81F WCI   4
ELY            FAIR      16   0  48 W10G17    29.76F WCI   3
CLOQUET        FAIR      16   1  53 NW12G18   29.83S WCI   3
WHEATON        PTSUNNY   28  19  69 SW9       29.94F WCI  20
BRAINERD       PTSUNNY   19   7  59 NW8       29.89F WCI   9
HIBBING        FAIR      14   1  56 NW15      29.82F WCI  -1
ALEXANDRIA     CLOUDY    25  14  63 W12       29.90F WCI  14
SAINT CLOUD    CLOUDY    25  10  53 NW10      29.92F WCI  15
MINNEAPOLIS    FAIR      26   3  37 NW16G23   29.94F WCI  14
$$

  *****  WEATHER ACROSS SOUTH DAKOTA  *****

CITY           SKY/WX    TMP DP  RH WIND       PRES   REMARKS
SIOUX FALLS    CLOUDY    23  15  71 SW6       30.01F WCI  16
BROOKINGS      FAIR      27  18  69 SW12      29.95F WCI  17
WATERTOWN      FAIR      28  16  60 SW17      29.91F WCI  16
HURON          CLOUDY    29  16  58 SW14      29.96F WCI  18
SISSETON         N/A     33  17  51 W21       29.89F WCI  21
ABERDEEN       FAIR      31  17  56 SW15G21   29.92F WCI  20
MITCHELL       CLOUDY    28  17  63 S12       29.99F WCI  18
PIERRE         FAIR      30  18  60 W9        29.90F WCI  22
MOBRIDGE       FAIR      32  18  56 S6        29.84F
RAPID CITY     FAIR      29  20  69 N13       29.87F WCI  19
$$

  *****  SOME WEATHER IN NEARBY STATES *****

CITY           SKY/WX    TMP DP  RH WIND       PRES   REMARKS
GLASGOW MT     LGT SNOW  25  21  85 W10       29.81F FOG     WCI  15
GREAT FALLS MT FAIR      28   8  43 SW23G29   29.79F WCI  14
CHEYENNE WY    FAIR      20   3  48 SW17G23   29.86S WCI   5
SCOTTSBLUFF NE FAIR      13   7  77 NW8       29.95F WCI   2
OMAHA NE       PTSUNNY   27  15  61 W3        30.14S
DES MOINES IA  PTSUNNY   25  11  55 NW13      30.09R WCI  14
DAVENPORT IA   FLURRIES  22  14  71 NW22      29.96S WCI   6
CHICAGO IL     FLURRIES  25  14  63 W14       29.83R WCI  13
EAU CLAIRE WI  MIX PCPN  18   3  52 NW14      29.87F WCI   4
LA CROSSE WI   FAIR      21   9  59 NW17      29.91R WCI   7
$$

  *****  SOME NATIONAL WEATHER *****

CITY           SKY/WX    TMP DP  RH WIND       PRES   REMARKS
LA GUARDIA NY  PTSUNNY   60  54  80 S9        29.69F
RALEIGH NC     PTSUNNY   77  56  48 SW20G29   29.65F
ATLANTA GA     FAIR      63  20  19 NW21G30   29.88S
NEW ORLEANS LA FAIR      62  38  40 N9        30.07R
OKLAHOMA CITY  FAIR      36  17  46 MISG      30.25F
ALBUQUERQUE NM FAIR      36   3  25 CALM      30.08F
SALT LAKE CITY CLOUDY    27  16  63 SE6       30.09S WCI  20
LOS ANGELES CA FAIR      53  41  63 SE6       30.14F
BOISE ID       FAIR      28  16  60 CALM      30.15F
SEATTLE WA     PTSUNNY   34  28  79 CALM      30.25S
$$

*** WEATHER ACROSS MANITOBA...SASKATCHEWAN AND ONTARIO ***
                ***ONTARIO***

CITY           SKY/WX    TMP DP  RH WIND       PRES   REMARKS
GERALDTON      PTSUNNY    9   1  72 MISG      29.53F
THUNDER BAY    PTSUNNY   19   7  58 NW17G28   29.68F WCI   4
SIOUX LOOKOUT  MOSUNNY   12   1  62 NW12      29.72F WCI  -2
TORONTO        CLOUDY    45  34  65 SW15G22   29.47R
BIG TROUT LK   SUNNY      1  -4  78 S5        29.70F WCI  -8
PICKLE LAKE    PTSUNNY    9  -9  43 NW9G18    29.64F WCI  -5
DRYDEN         MOSUNNY   12   0  57 NW7       29.73F WCI   2
KENORA         FLURRIES  14   5  67 W8        29.76F WCI   3
$$
                *** MANITOBA***

CITY           SKY/WX    TMP DP  RH WIND       PRES   REMARKS
BRANDON        PTSUNNY   14   7  73 NW24      29.83F WCI  -5
DAUPHIN        CLOUDY    10   1  67 NW13      29.86F WCI  -5
ISLAND LAKE    MOSUNNY   -2  -8  78 W6        29.77F WCI -14
PILOT MOUND      N/A     18  16  93 NW15G21     N/A  WCI   3
THE PAS        FLURRIES   5  -6  61 NW10      29.85F WCI -10
THOMPSON       FLURRIES  -4  -9  77 W8        29.77F WCI -19
WINNIPEG       LGT SNOW  18  16  93 W13       29.79F WCI   4
LYNN LAKE      FLURRIES  -6  -9  84 NW7       29.75F WCI -20
CHURCHILL      MOSUNNY  -13 -17  84 W3        29.81F
GILLAM         PTSUNNY   -4  -9  77 NW3       29.77F
$$
                ***SASKATCHEWAN***

CITY           SKY/WX    TMP DP  RH WIND       PRES   REMARKS
ESTEVAN        FLURRIES  14   9  79 NW10      29.85F WCI   1
KINDERSLEY     CRYSTALS  12   7  79 SW7       29.81F WCI   2
LLOYDMINSTER   PTSUNNY   10   7  85 SW10      29.76F WCI  -3
PRINCE ALBERT  FLURRIES   9  -2  61 W9        29.86F WCI  -5
REGINA         PTSUNNY   12   5  73 NW10      29.85F WCI  -1
YORKTON        CLOUDY     9   1  72 NW14      29.84F WCI  -8
N. BATTLEFORD  SUNNY     10   3  72 S3        29.86F
LA RONGE       LGT SNOW   1  -4  78 S6        29.81F WCI -10
SASKATOON      CLOUDY     9   1  72 W7        29.88F WCI  -3
SWIFT CURRENT  CLOUDY    12   9  85 SW5       29.79F WCI   4
$$
NOTE: THESE ARE AUTOMATED STATIONS WITH LIMITED QUALITY CONTROL
      "FAIR" INDICATES FEW OR NO CLOUDS BELOW 12,000 FEET WITH NO
      SIGNIFICANT WEATHER AND/OR OBSTRUCTIONS TO VISIBILITY.
      SKY/WX - SKY CONDITION AND SIGNIFICANT WEATHER.
      TMP - AIR TEMPERATURE.    DP   - DEWPOINT TEMPERATURE.
      RH  - RELATIVE HUMIDITY.  PRES - PRESSURE.
      HX  - HEAT INDEX.         WCI  - WIND CHILL INDEX.
$




USA.gov is the U.S. government's official web portal to all federal, state and local government web resources and services.